Portada
METAR-TAF:

METAR-TAF

Aeroports :

Newman, Austràlia

latitud: 23-25-04S, longitud: 119-48-10E, altitud: 525 m

Observació

L'informe es va fer fa 45 minuts, a les 23:00 UTC
Vent 16 kt del Est
Temperatura 29°C
Humitat 37%
Pressió 1012 hPa
Visibilitat 10 km o més

METAR: YNWN 122300Z AUTO 09016KT 9999 // NCD 29/13 Q1012

Hora: 07:45 (23:45 UTC)


TAF: manca

Observacions i pronòstics meteorològics de més de 4000 aeroports (METAR i TAF).

Les estacions disponibles són els punts grocs i vermells al mapa.

Posi el ratolí al punt desitjat per veure el nom de l'estació.

Feu clic per veure les observacions i els pronòstics meteorològics.

Per canviar el mapa: feu clic els botons verds amb una creu de color negre per apropar; al botó verd amb un guió per allunyar la imatge; o en les fletxes verdes per a mapes adjacents.


METAR-TAF: